This demonstration page uses our WeatherBlox Daily Observations layout. Learn more.

Hourly Observations for January 29, 2020

Temp ( °F °C ) Dew Point ( °F °C ) Humidity (%) Winds ( mph kmh ) Pressure ( in mb ) Visibility ( mi km ) Precip ( " mm )
12:07 am 00:07 Cloudy with Light Snow 28 -2.2 26 -3.3 92 92 SSE 3 6 30.2 1023 2 3.21868 0.01 0.254
12:54 am 00:54 Cloudy with Light Snow 28 -2.2 26 -3.3 92 92 Calm 30.17 1022 3 4.82802 0.02 0.508
1:36 am 01:36 Cloudy with Mist and Fog 25 -3.9 24 -4.4 96 96 Calm 30.2 1023 4 6.43736 0.001 0.001
1:44 am 01:44 Cloudy with Mist and Fog 25 -3.9 23 -5 92 92 Calm 30.2 1023 3 4.82802 0.001 0.001
1:48 am 01:48 Cloudy with Mist and Fog 25 -4 23 -5 93 93 Calm 30.2 1023 1.75 2.816345 0.001 0.001
1:54 am 01:54 Cloudy with Mist and Fog 25 -3.9 23 -5 92 92 Calm 30.17 1022 0.75 1.207005 0.001 0.001
2:14 am 02:14 Cloudy with Mist and Fog 26 -3.3 24 -4.4 92 92 Calm 30.2 1023 2 3.21868 0 0
2:23 am 02:23 Cloudy with Mist and Fog 26 -3.3 24 -4.4 92 92 Calm 30.2 1023 4 6.43736 0 0
2:36 am 02:36 Cloudy with Mist and Fog 26 -3.3 25 -3.9 96 96 Calm 30.2 1023 2.5 4.02335 0 0
2:47 am 02:47 Cloudy with Mist and Fog 26 -3.3 25 -3.9 96 96 Calm 30.2 1023 3 4.82802 0 0
2:54 am 02:54 Cloudy with Mist and Fog 27 -2.8 25 -3.9 92 92 Calm 30.16 1021 4 6.43736 0 0
3:54 am 03:54 Cloudy with Mist and Fog 27 -2.8 25 -3.9 92 92 Calm 30.16 1021 6 9.65604 0 0
4:54 am 04:54 Cloudy 28 -2.2 25 -3.9 88 88 Calm 30.16 1022 7 11.26538 0 0
5:54 am 05:54 Cloudy 28 -2.2 26 -3.3 92 92 Calm 30.17 1022 7 11.26538 0 0
6:12 am 06:12 Cloudy 28 -2.2 25 -3.9 88 88 Calm 30.2 1023 7 11.26538 0 0
6:54 am 06:54 Cloudy with Mist and Fog 28 -2.2 26 -3.3 92 92 Calm 30.19 1022 6 9.65604 0 0
7:33 am 07:33 Cloudy with Mist and Fog 28 -2.2 25 -3.9 88 88 SE 3 6 30.22 1023 6 9.65604 0 0
7:54 am 07:54 Cloudy with Mist and Fog 29 -1.7 26 -3.3 89 89 S 3 6 30.2 1023 6 9.65604 0 0
8:54 am 08:54 Cloudy with Mist and Fog 29 -1.7 26 -3.3 89 89 S 6 9 30.21 1023 5 8.0467 0 0
9:54 am 09:54 Cloudy with Mist and Fog 30 -1.1 26 -3.3 85 85 S 5 7 30.22 1023 6 9.65604 0 0
10:54 am 10:54 Cloudy with Mist and Fog 31 -0.6 27 -2.8 85 85 SSW 5 7 30.23 1024 6 9.65604 0 0
11:54 am 11:54 Cloudy 32 0 28 -2.2 85 85 S 3 6 30.22 1024 8 12.87472 0 0
12:20 pm 12:20 Cloudy 33 0.6 28 -2.2 82 82 SSE 7 11 30.23 1024 8 12.87472 0 0
12:54 pm 12:54 Cloudy 33 0.6 29 -1.7 85 85 S 5 7 30.2 1023 7 11.26538 0 0
1:32 pm 13:32 Cloudy 34 1.1 29 -1.7 82 82 SSW 5 7 30.21 1023 8 12.87472 0 0
1:54 pm 13:54 Cloudy 34 1.1 29 -1.7 82 82 S 3 6 30.19 1023 7 11.26538 0 0
2:54 pm 14:54 Cloudy 35 1.7 29 -1.7 78 78 SE 5 7 30.17 1022 8 12.87472 0 0
3:54 pm 15:54 Cloudy 36 2.2 30 -1.1 79 79 SSE 6 9 30.17 1022 7 11.26538 0 0
4:06 pm 16:06 Mostly Cloudy 35 1.7 29 -1.7 78 78 SSE 6 9 30.19 1022 7 11.26538 0 0
4:54 pm 16:54 Cloudy with Mist and Fog 34 1.1 30 -1.1 85 85 S 7 11 30.17 1022 6 9.65604 0 0
5:36 pm 17:36 Cloudy with Mist and Fog 33 0.6 29 -1.7 85 85 SSW 5 7 30.21 1023 5 8.0467 0 0
5:54 pm 17:54 Cloudy with Mist and Fog 33 0.6 29 -1.7 85 85 SSW 5 7 30.19 1022 6 9.65604 0 0
6:54 pm 18:54 Cloudy 33 0.6 29 -1.7 85 85 S 5 7 30.19 1023 7 11.26538 0 0
7:34 pm 19:34 Cloudy with Mist and Fog 32 0 29 -1.7 88 88 SSE 5 7 30.22 1023 6 9.65604 0 0
7:54 pm 19:54 Cloudy with Mist and Fog 32 0 29 -1.7 88 88 SSE 5 7 30.2 1023 6 9.65604 0 0
8:54 pm 20:54 Cloudy 33 0.6 28 -2.2 82 82 SSE 7 11 30.19 1022 7 11.26538 0 0
9:54 pm 21:54 Cloudy 33 0.6 28 -2.2 82 82 SE 7 11 30.19 1022 7 11.26538 0 0
10:54 pm 22:54 Cloudy 32 0 29 -1.7 88 88 S 5 7 30.19 1022 7 11.26538 0 0
11:54 pm 23:54 Cloudy 32 0 29 -1.7 88 88 S 3 6 30.18 1022 7 11.26538 0 0

Powered by AerisWeather